Flag for U.S.A. Weather past 2 weeks in Springfield, Illinois, U.S.A.

Now
77 °F

Overcast.


Feels Like: 79 °F
Forecast: 67 / 83 °F
Wind: 7 mph from South

Location: Capital Airport

Current Time: Aug 29, 2015 at 2:55:54 PM

Latest Report: Aug 29, 2015 at 1:52 PM


Visibility: 10 mi

Pressure: 30.00 "Hg

Humidity: 71%

Dew point: 67 °F

Location of SpringfieldLocation

Historic Weather in Springfield — Graph

°F

Springfield temperature yesterday

Maximum temperature yesterday: 80 °F (at 12:52 PM)
Minimum temperature yesterday: 57 °F (at 5:52 AM)
Average temperature yesterday: 70 °F

Past Weeks' High & Low Weather Summary

 TemperatureHumidityPressure
High89 °F (Aug 15, 1:52 PM)97% (Aug 23, 7:52 AM)30.21 "Hg (Aug 23, 7:52 AM)
Low49 °F (Aug 25, 6:52 AM)37% (Aug 24, 4:52 PM)29.69 "Hg (Aug 19, 3:01 AM)
Average71 °F73%30.02 "Hg
* Reported Aug 14 1:52 PM — Aug 29 1:52 PM, Springfield, Weather by CustomWeather, © 2015

Note: Actual official high and low records may vary slightly from our data, if they occured in-between our weather recording intervals... More about our weather records

Advertising

Springfield weather history for previous 24 hours

 ConditionsComfort  
Time TempWeatherWind HumidityBarometerVisibility
1:52 PM
Sat, Aug 29
77 °FOvercast.7 mph71%30.00 "Hg10 mi
12:52 PM78 °FPartly sunny.7 mph69%30.01 "Hg10 mi
11:52 AM78 °FScattered clouds.9 mph69%30.02 "Hg10 mi
10:52 AM77 °FPassing clouds.10 mph69%30.01 "Hg10 mi
9:52 AM72 °FPartly sunny.6 mph81%30.01 "Hg10 mi
8:52 AM71 °FScattered clouds.9 mph84%30.00 "Hg10 mi
7:52 AM70 °FPartly sunny.5 mph84%30.02 "Hg10 mi
6:52 AM69 °FPassing clouds.8 mph84%29.99 "Hg10 mi
5:52 AM69 °FOvercast.9 mph84%29.99 "Hg10 mi
4:52 AM70 °FOvercast.10 mph81%29.98 "Hg10 mi
3:52 AM68 °FOvercast.9 mph87%29.99 "Hg10 mi
1:52 AM70 °FLight rain. Overcast.8 mph79%30.03 "Hg10 mi
12:52 AM71 °FOvercast.8 mph71%30.02 "Hg10 mi
11:52 PM
Fri, Aug 28
72 °FOvercast.9 mph68%30.02 "Hg10 mi
10:52 PM72 °FClear.7 mph68%30.01 "Hg10 mi
9:52 PM73 °FClear.9 mph64%30.00 "Hg10 mi
8:52 PM74 °FClear.8 mph62%30.01 "Hg10 mi
7:52 PM73 °FSunny.6 mph64%30.01 "Hg10 mi
6:52 PM76 °FSunny.14 mph56%30.00 "Hg10 mi
5:52 PM78 °FSunny.10 mph52%30.02 "Hg10 mi
4:52 PM79 °FSunny.15 mph50%30.03 "Hg10 mi
3:52 PM79 °FSunny.15 mph50%30.04 "Hg10 mi
2:52 PM80 °FSunny.12 mph51%30.06 "Hg10 mi
Weather by CustomWeather, © 2015

See weather overviewHow to use our weather pages